Simultaneous Nadir Overpasses (SNOs) Predictions

Prediction of SNOs between METOP-C and LANDSAT-8 Satellite Orbit:

Table of predicted SNOs for the next 14.0 days since TLE Epoch: 12/24/2022
Index Date (METOP-C) Time (METOP-C) Lat,Lon (METOP-C) SZA (METOP-C ) Date (LANDSAT-8) Time (LANDSAT-8) Lat,Lon (LANDSAT-8) SZA (LANDSAT-8 ) Distance(km) Time Diff (sec)
1 12/25/2022 00:49:52 -81.11, 27.18 73.59 12/25/2022 00:50:07 -81.10, 27.02 73.61 2.97 15
2 12/25/2022 01:40:32 81.13,-164.82 106.50 12/25/2022 01:39:32 81.13,-164.89 106.46 1.25 60
3 12/27/2022 20:24:13 -81.11, 93.58 73.72 12/27/2022 20:24:22 -81.10, 93.43 73.74 2.83 9
4 12/27/2022 21:14:53 81.13, -98.42 106.36 12/27/2022 21:13:47 81.13, -98.51 106.32 1.68 66
5 12/30/2022 15:08:09 80.89, -12.49 105.46 12/30/2022 15:09:23 80.77, -12.26 105.40 14.47 74
6 12/30/2022 15:58:35 -81.11, 159.92 73.93 12/30/2022 15:58:37 -81.11, 159.93 73.93 0.30 2
7 12/30/2022 16:49:15 81.13, -32.09 106.16 12/30/2022 16:48:02 81.13, -32.03 106.13 0.92 73
8 01/02/2023 10:42:18 81.09, 58.55 105.78 01/02/2023 10:43:25 81.09, 58.52 105.80 0.55 67
9 01/02/2023 11:32:56 -81.12,-133.42 74.15 01/02/2023 11:32:51 -81.12,-133.46 74.15 0.63 5
10 01/05/2023 06:16:39 81.08, 124.75 105.44 01/05/2023 06:17:38 81.08, 124.84 105.47 1.57 59



Historial Predications of SNOs between METOP-C and LANDSAT-8
